| time (UTC) | temp F | wind direction | speed MPH | gust MPH | rain 1hr in | rain 24hr in | rain mn in | humidity % | barometer mb |
| 20260903213002 | 55 | 105 | 9.0 | 20.0 | 0.00 | 0.00 | 0.00 | 83 | 1014.1 |
| 20260903211600 | 55 | 127 | 8.0 | 21.0 | 0.00 | 0.00 | 0.00 | 83 | 1014.4 |
| 20260903210100 | 55 | 115 | 8.0 | 21.0 | 0.00 | 0.00 | 0.00 | 83 | 1014.6 |
| 20260903204556 | 56 | 116 | 7.0 | 22.0 | 0.00 | 0.00 | 0.00 | 82 | 1014.6 |
| 20260903203057 | 56 | 109 | 9.0 | 20.0 | 0.00 | 0.00 | 0.00 | 82 | 1014.5 |
| 20260903201556 | 56 | 123 | 10.0 | 21.0 | 0.00 | 0.00 | 0.00 | 81 | 1014.6 |
| 20260903200054 | 57 | 117 | 13.0 | 25.0 | 0.00 | 0.00 | 0.00 | 81 | 1014.4 |
| 20260903194556 | 57 | 126 | 10.0 | 24.0 | 0.00 | 0.00 | 0.00 | 81 | 1014.0 |
| 20260903193053 | 57 | 111 | 11.0 | 21.0 | 0.00 | 0.00 | 0.00 | 82 | 1013.9 |
| 20260903191553 | 58 | 89 | 11.0 | 23.0 | 0.00 | 0.00 | 0.00 | 82 | 1013.7 |
| 20260903190052 | 58 | 105 | 10.0 | 22.0 | 0.00 | 0.00 | 0.00 | 82 | 1014.0 |
| 20260903184557 | 58 | 81 | 9.0 | 19.0 | 0.00 | 0.00 | 0.00 | 82 | 1013.9 |
| 20260903183151 | 58 | 113 | 10.0 | 19.0 | 0.00 | 0.00 | 0.00 | 82 | 1014.0 |
| 20260903181554 | 58 | 121 | 8.0 | 20.0 | 0.00 | 0.00 | 0.00 | 81 | 1013.8 |
| 20260903180056 | 59 | 85 | 9.0 | 18.0 | 0.00 | 0.00 | 0.00 | 81 | 1013.8 |
| 20260903174549 | 59 | 96 | 8.0 | 18.0 | 0.00 | 0.00 | 0.00 | 81 | 1013.6 |
| 20260903173051 | 59 | 89 | 10.0 | 23.0 | 0.00 | 0.00 | 0.00 | 81 | 1013.6 |
| 20260903171549 | 59 | 104 | 10.0 | 20.0 | 0.00 | 0.00 | 0.00 | 82 | 1013.5 |
| 20260903170051 | 59 | 115 | 11.0 | 20.0 | 0.00 | 0.00 | 0.00 | 80 | 1013.6 |
| 20260903164548 | 59 | 115 | 12.0 | 21.0 | 0.00 | 0.00 | 0.00 | 81 | 1013.5 |
| 20260903163058 | 60 | 82 | 10.0 | 24.0 | 0.00 | 0.00 | 0.00 | 81 | 1013.5 |
| 20260903161545 | 60 | 117 | 11.0 | 23.0 | 0.00 | 0.00 | 0.00 | 80 | 1013.4 |
| 20260903160048 | 61 | 111 | 8.0 | 19.0 | 0.00 | 0.00 | 0.00 | 79 | 1013.3 |
| 20260903154547 | 61 | 114 | 9.0 | 19.0 | 0.00 | 0.00 | 0.00 | 77 | 1013.1 |
| 20260903153044 | 62 | 107 | 7.0 | 16.0 | 0.00 | 0.00 | 0.00 | 75 | 1013.0 |
| 20260903151545 | 63 | 123 | 6.0 | 14.0 | 0.00 | 0.00 | 0.00 | 72 | 1012.9 |
| 20260903150043 | 65 | 77 | 4.0 | 13.0 | 0.00 | 0.00 | 0.00 | 69 | 1012.9 |
| 20260903144548 | 65 | 117 | 1.0 | 12.0 | 0.00 | 0.00 | 0.00 | 67 | 1012.7 |
| 20260903143041 | 66 | 78 | 5.0 | 13.0 | 0.00 | 0.00 | 0.00 | 66 | 1012.7 |
| 20260903141541 | 66 | 125 | 2.0 | 13.0 | 0.00 | 0.00 | 0.00 | 66 | 1012.6 |
| 20260903140040 | 66 | 113 | 2.0 | 11.0 | 0.00 | 0.00 | 0.00 | 66 | 1012.6 |
| 20260903134539 | 66 | 108 | 4.0 | 13.0 | 0.00 | 0.00 | 0.00 | 66 | 1012.7 |
| 20260903133047 | 66 | 113 | 4.0 | 12.0 | 0.00 | 0.00 | 0.00 | 66 | 1012.7 |
| 20260903131539 | 67 | 111 | 3.0 | 11.0 | 0.00 | 0.00 | 0.00 | 65 | 1012.6 |
| 20260903130038 | 69 | 126 | 0.0 | 9.0 | 0.00 | 0.00 | 0.00 | 63 | 1012.5 |
| 20260903124537 | 69 | 159 | 0.0 | 6.0 | 0.00 | 0.00 | 0.00 | 61 | 1012.5 |
| 20260903123036 | 71 | 117 | 0.0 | 8.0 | 0.00 | 0.00 | 0.00 | 61 | 1012.5 |
| 20260903121543 | 70 | 261 | 0.0 | 3.0 | 0.00 | 0.00 | 0.00 | 62 | 1012.8 |
| 20260903120043 | 70 | 261 | 0.0 | 3.0 | 0.00 | 0.00 | 0.00 | 61 | 1012.9 |
| 20260903114531 | 71 | 261 | 0.0 | 7.0 | 0.00 | 0.00 | 0.00 | 59 | 1013.0 |
| 20260903113029 | 72 | 269 | 0.0 | 8.0 | 0.00 | 0.00 | 0.00 | 55 | 1013.4 |
| 20260903111528 | 72 | 221 | 0.0 | 8.0 | 0.00 | 0.00 | 0.00 | 53 | 1013.5 |
| 20260903110026 | 71 | 246 | 0.0 | 8.0 | 0.00 | 0.00 | 0.00 | 55 | 1013.6 |
| 20260903104525 | 72 | 242 | 0.0 | 8.0 | 0.00 | 0.00 | 0.00 | 54 | 1013.8 |
| 20260903103023 | 72 | 261 | 1.0 | 8.0 | 0.00 | 0.00 | 0.00 | 55 | 1014.0 |
| 20260903101520 | 71 | 230 | 3.0 | 10.0 | 0.00 | 0.00 | 0.00 | 56 | 1014.3 |
| 20260903100018 | 70 | 290 | 1.0 | 8.0 | 0.00 | 0.00 | 0.00 | 57 | 1014.7 |
| 20260903094517 | 70 | 255 | 1.0 | 7.0 | 0.00 | 0.00 | 0.00 | 58 | 1014.9 |
| 20260903093016 | 70 | 204 | 0.0 | 6.0 | 0.00 | 0.00 | 0.00 | 58 | 1015.2 |
| 20260903091517 | 69 | 210 | 0.0 | 6.0 | 0.00 | 0.00 | 0.00 | 58 | 1015.4 |
| 20260903090011 | 67 | 261 | 2.0 | 8.0 | 0.00 | 0.00 | 0.00 | 61 | 1015.4 |
| 20260903084508 | 66 | 261 | 0.0 | 7.0 | 0.00 | 0.00 | 0.00 | 63 | 1015.7 |
| 20260903083009 | 65 | 261 | 1.0 | 11.0 | 0.00 | 0.00 | 0.00 | 64 | 1015.9 |
| 20260903081503 | 65 | 256 | 0.0 | 4.0 | 0.00 | 0.00 | 0.00 | 66 | 1016.1 |
| 20260903080007 | 63 | 88 | 0.0 | 7.0 | 0.00 | 0.00 | 0.00 | 67 | 1016.2 |
| 20260903074501 | 64 | 74 | 0.0 | 0.0 | 0.00 | 0.00 | 0.00 | 67 | 1016.4 |
| 20260903073110 | 64 | 74 | 0.0 | 0.0 | 0.00 | 0.00 | 0.00 | 68 | 1016.6 |
| 20260903071604 | 62 | 74 | 0.0 | 0.0 | 0.00 | 0.00 | 0.00 | 69 | 1016.7 |
| 20260903064551 | 59 | 73 | 0.0 | 0.0 | 0.00 | 0.00 | 0.00 | 75 | 1016.8 |
| 20260903063102 | 59 | 73 | 0.0 | 0.0 | 0.00 | 0.00 | 0.00 | 77 | 1016.9 |
| 20260903061600 | 58 | 73 | 0.0 | 0.0 | 0.00 | 0.00 | 0.00 | 78 | 1016.9 |
| 20260903060042 | 56 | 73 | 0.0 | 0.0 | 0.00 | 0.00 | 0.00 | 81 | 1016.8 |
| 20260903054542 | 56 | 73 | 0.0 | 0.0 | 0.00 | 0.00 | 0.00 | 81 | 1016.8 |
| 20260903053041 | 56 | 73 | 0.0 | 0.0 | 0.00 | 0.00 | 0.00 | 82 | 1016.6 |
| 20260903051538 | 56 | 73 | 0.0 | 0.0 | 0.00 | 0.00 | 0.00 | 86 | 1016.5 |
| 20260903050035 | 54 | 73 | 0.0 | 0.0 | 0.00 | 0.00 | 0.00 | 92 | 1016.5 |
| 20260903044533 | 51 | 73 | 0.0 | 0.0 | 0.00 | 0.00 | 0.00 | 92 | 1016.4 |
| 20260903043034 | 50 | 73 | 0.0 | 0.0 | 0.00 | 0.00 | 0.00 | 91 | 1016.4 |
| 20260903041535 | 50 | 73 | 0.0 | 0.0 | 0.00 | 0.00 | 0.00 | 91 | 1016.2 |
| 20260903040030 | 50 | 73 | 0.0 | 0.0 | 0.00 | 0.00 | 0.00 | 91 | 1016.0 |
| 20260903034528 | 49 | 73 | 0.0 | 1.0 | 0.00 | 0.00 | 0.00 | 91 | 1015.6 |
| 20260903033027 | 49 | 73 | 0.0 | 1.0 | 0.00 | 0.00 | 0.00 | 91 | 1015.6 |
| 20260903031528 | 49 | 73 | 0.0 | 0.0 | 0.00 | 0.00 | 0.00 | 91 | 1015.4 |
| 20260903030026 | 49 | 73 | 0.0 | 0.0 | 0.00 | 0.00 | 0.00 | 90 | 1015.2 |
| 20260903024525 | 49 | 73 | 0.0 | 0.0 | 0.00 | 0.00 | 0.00 | 90 | 1014.9 |
| 20260903023024 | 49 | 73 | 0.0 | 0.0 | 0.00 | 0.00 | 0.00 | 90 | 1014.6 |
| 20260903021525 | 49 | 73 | 0.0 | 0.0 | 0.00 | 0.00 | 0.00 | 89 | 1014.6 |
| 20260903020034 | 49 | 73 | 0.0 | 0.0 | 0.00 | 0.00 | 0.00 | 89 | 1014.4 |
| 20260903014521 | 50 | 73 | 0.0 | 0.0 | 0.00 | 0.00 | 0.00 | 88 | 1014.3 |
| 20260903013019 | 50 | 73 | 0.0 | 0.0 | 0.00 | 0.00 | 0.00 | 87 | 1014.2 |
| 20260903011518 | 50 | 73 | 0.0 | 0.0 | 0.00 | 0.00 | 0.00 | 86 | 1014.0 |
| 20260903010014 | 51 | 73 | 0.0 | 0.0 | 0.00 | 0.00 | 0.00 | 84 | 1013.9 |
| 20260903004511 | 53 | 73 | 0.0 | 2.0 | 0.00 | 0.00 | 0.00 | 83 | 1013.9 |
| 20260903003011 | 53 | 73 | 1.0 | 6.0 | 0.00 | 0.00 | 0.00 | 84 | 1013.8 |
| 20260903001509 | 53 | 74 | 3.0 | 10.0 | 0.00 | 0.00 | 0.00 | 84 | 1013.7 |
| 20260903000008 | 53 | 76 | 3.0 | 11.0 | 0.00 | 0.00 | 0.00 | 85 | 1013.8 |
| 20260902234506 | 53 | 85 | 4.0 | 14.0 | 0.00 | 0.00 | 0.00 | 86 | 1013.7 |
| 20260902233005 | 53 | 77 | 7.0 | 16.0 | 0.00 | 0.00 | 0.00 | 86 | 1013.8 |
| 20260902231503 | 53 | 82 | 7.0 | 14.0 | 0.00 | 0.00 | 0.00 | 85 | 1014.0 |
| 20260902230104 | 53 | 75 | 8.0 | 16.0 | 0.00 | 0.00 | 0.00 | 85 | 1014.1 |
| 20260902224614 | 54 | 91 | 6.0 | 18.0 | 0.00 | 0.00 | 0.00 | 85 | 1014.1 |
| 20260902223057 | 54 | 76 | 9.0 | 18.0 | 0.00 | 0.00 | 0.00 | 84 | 1014.5 |
| 20260902221556 | 54 | 106 | 7.0 | 16.0 | 0.00 | 0.00 | 0.00 | 84 | 1014.7 |
| 20260902220057 | 54 | 82 | 9.0 | 22.0 | 0.00 | 0.00 | 0.00 | 85 | 1014.7 |
| 20260902214554 | 54 | 81 | 9.0 | 18.0 | 0.00 | 0.00 | 0.00 | 84 | 1015.1 |